DL1MX-13 Weather Reports


time (UTC)temp
C
wind
direction
speed
KPH
gust
KPH
rain 1hr
cm
rain 24hr
cm
rain mn
cm
humidity
%
barometer
mb
20260505130301 14 220 6.4 0.0 0.00 0.00 0.00 80 1009.5
20260505130202 14 220 6.4 0.0 0.00 0.00 0.00 80 1009.4
20260505125002 15 215 11.3 0.0 0.00 0.00 0.00 80 1009.5
20260505124901 15 205 6.4 0.0 0.00 0.00 0.00 80 1009.5
20260505124802 15 205 6.4 0.0 0.00 0.00 0.00 80 1009.5
20260505124701 15 205 6.4 0.0 0.00 0.00 0.00 80 1009.5
20260505124602 15 220 11.3 0.0 0.00 0.00 0.00 79 1009.5
20260505124501 15 220 11.3 0.0 0.00 0.00 0.00 79 1009.5
20260505124402 15 227 8.0 0.0 0.00 0.00 0.00 79 1009.5
20260505124302 15 227 8.0 0.0 0.00 0.00 0.00 79 1009.5
20260505124201 15 227 8.0 0.0 0.00 0.00 0.00 79 1009.5
20260505124102 15 165 6.4 0.0 0.00 0.00 0.00 79 1009.6
20260505124001 15 165 6.4 0.0 0.00 0.00 0.00 79 1009.6
20260505123902 15 152 8.0 0.0 0.00 0.00 0.00 78 1009.5
20260505123801 15 152 8.0 0.0 0.00 0.00 0.00 78 1009.6
20260505123702 15 152 8.0 0.0 0.00 0.00 0.00 78 1009.6
20260505123602 15 130 6.4 0.0 0.00 0.00 0.00 77 1009.6
20260505123501 15 130 6.4 0.0 0.00 0.00 0.00 77 1009.6
20260505123402 16 140 9.7 0.0 0.00 0.00 0.00 76 1009.6
20260505123301 16 140 9.7 0.0 0.00 0.00 0.00 76 1009.6
20260505123202 16 140 9.7 0.0 0.00 0.00 0.00 76 1009.6
20260505123101 16 122 9.7 0.0 0.00 0.00 0.00 72 1009.6
20260505123002 16 122 9.7 0.0 0.00 0.00 0.00 72 1009.5
20260505122902 16 122 9.7 0.0 0.00 0.00 0.00 72 1009.5
20260505122802 16 85 0.0 0.0 0.00 0.00 0.00 72 1009.5
20260505122702 16 85 0.0 0.0 0.00 0.00 0.00 72 1009.6
20260505122601 16 52 0.0 0.0 0.00 0.00 0.00 72 1009.6
20260505122502 16 52 0.0 0.0 0.00 0.00 0.00 72 1009.5
20260505122401 16 10 0.0 0.0 0.00 0.00 0.00 71 1009.6
20260505122305 16 10 0.0 0.0 0.00 0.00 0.00 71 1009.6
20260505122201 16 10 0.0 0.0 0.00 0.00 0.00 71 1009.6
20260505122102 16 145 0.0 0.0 0.00 0.00 0.00 72 1009.6
20260505122002 16 145 0.0 0.0 0.00 0.00 0.00 72 1009.6
20260505121901 16 145 0.0 0.0 0.00 0.00 0.00 72 1009.6
20260505121802 16 145 0.0 0.0 0.00 0.00 0.00 72 1009.6
20260505121701 16 145 0.0 0.0 0.00 0.00 0.00 72 1009.6
20260505121602 16 145 0.0 0.0 0.00 0.00 0.00 72 1009.6
20260505121501 16 195 0.0 0.0 0.00 0.00 0.00 71 1009.6
20260505121402 16 195 0.0 0.0 0.00 0.00 0.00 71 1009.6
20260505121301 16 212 0.0 0.0 0.00 0.00 0.00 71 1009.6
20260505121202 16 212 0.0 0.0 0.00 0.00 0.00 71 1009.6
20260505121102 16 75 0.0 0.0 0.00 0.00 0.00 69 1009.6
20260505121002 16 75 0.0 0.0 0.00 0.00 0.00 69 1009.6
20260505120901 16 75 0.0 0.0 0.00 0.00 0.00 69 1009.6
20260505120802 16 75 0.0 0.0 0.00 0.00 0.00 69 1009.6
20260505120702 16 75 0.0 0.0 0.00 0.00 0.00 69 1009.6
20260505120602 16 75 0.0 0.0 0.00 0.00 0.00 69 1009.6
20260505120502 16 217 0.0 0.0 0.00 0.00 0.00 70 1009.6
20260505120401 16 217 0.0 0.0 0.00 0.00 0.00 70 1009.6
20260505120302 16 225 0.0 0.0 0.00 0.00 0.00 70 1009.6
20260505120201 16 225 0.0 0.0 0.00 0.00 0.00 70 1009.6
20260505120001 16 265 4.8 0.0 0.00 0.00 0.00 70 1009.6
20260505115902 16 265 4.8 0.0 0.00 0.00 0.00 70 1009.6
20260505115802 16 20 0.0 0.0 0.00 0.00 0.00 70 1009.7
20260505115702 16 20 0.0 0.0 0.00 0.00 0.00 70 1009.6
20260505115602 16 20 0.0 0.0 0.00 0.00 0.00 70 1009.6
20260505115501 16 20 0.0 0.0 0.00 0.00 0.00 70 1009.7
20260505115402 16 20 0.0 0.0 0.00 0.00 0.00 70 1009.7
20260505115304 16 12 0.0 0.0 0.00 0.00 0.00 70 1009.6
20260505115202 16 12 0.0 0.0 0.00 0.00 0.00 70 1009.7
20260505115102 16 12 0.0 0.0 0.00 0.00 0.00 70 1009.6
20260505115002 17 330 6.4 0.0 0.00 0.00 0.00 70 1009.7
20260505114902 17 330 6.4 0.0 0.00 0.00 0.00 70 1009.7
20260505114801 17 310 3.2 0.0 0.00 0.00 0.00 69 1009.7
20260505114702 17 310 3.2 0.0 0.00 0.00 0.00 69 1009.7
20260505114601 17 310 3.2 0.0 0.00 0.00 0.00 69 1009.7
20260505114502 17 260 4.8 0.0 0.00 0.00 0.00 69 1009.7
20260505114401 17 260 4.8 0.0 0.00 0.00 0.00 69 1009.7
20260505114302 17 260 4.8 0.0 0.00 0.00 0.00 69 1009.7
20260505114202 17 225 4.8 0.0 0.00 0.00 0.00 69 1009.7
20260505114102 17 225 4.8 0.0 0.00 0.00 0.00 69 1009.8
20260505114002 17 90 0.0 0.0 0.00 0.00 0.00 68 1009.8
20260505113901 17 90 0.0 0.0 0.00 0.00 0.00 68 1009.7
20260505113802 17 90 0.0 0.0 0.00 0.00 0.00 68 1009.7
20260505113701 17 90 0.0 0.0 0.00 0.00 0.00 68 1009.8
20260505113602 17 90 0.0 0.0 0.00 0.00 0.00 68 1009.8
20260505113502 17 105 0.0 0.0 0.00 0.00 0.00 69 1009.8
20260505113402 17 105 0.0 0.0 0.00 0.00 0.00 69 1009.8
20260505113302 17 105 0.0 0.0 0.00 0.00 0.00 69 1009.8
20260505113201 17 115 0.0 0.0 0.00 0.00 0.00 72 1009.8
20260505113102 17 115 0.0 0.0 0.00 0.00 0.00 72 1009.8
20260505113002 17 115 0.0 0.0 0.00 0.00 0.00 72 1009.8
20260505112902 17 115 0.0 0.0 0.00 0.00 0.00 72 1009.8
20260505112801 17 115 0.0 0.0 0.00 0.00 0.00 72 1009.8
20260505112702 17 15 6.4 0.0 0.00 0.00 0.00 72 1009.9
20260505112602 17 15 6.4 0.0 0.00 0.00 0.00 72 1009.8
20260505112501 17 15 6.4 0.0 0.00 0.00 0.00 72 1009.8
20260505112402 17 15 6.4 0.0 0.00 0.00 0.00 72 1009.8
20260505112301 17 15 6.4 0.0 0.00 0.00 0.00 72 1009.8
20260505112202 17 255 0.0 0.0 0.00 0.00 0.00 73 1009.8
20260505112101 17 255 0.0 0.0 0.00 0.00 0.00 73 1009.9
20260505112002 17 255 0.0 0.0 0.00 0.00 0.00 73 1009.9
20260505111901 17 235 0.0 0.0 0.00 0.00 0.00 72 1009.9
20260505111801 17 235 0.0 0.0 0.00 0.00 0.00 72 1009.9
20260505111702 17 255 0.0 0.0 0.00 0.00 0.00 72 1009.9
20260505111601 17 255 0.0 0.0 0.00 0.00 0.00 72 1009.9
20260505111502 16 250 4.8 0.0 0.00 0.00 0.00 75 1009.9
20260505111401 16 250 4.8 0.0 0.00 0.00 0.00 75 1009.9
20260505111302 16 250 4.8 0.0 0.00 0.00 0.00 75 1010.0
20260505111202 16 230 4.8 0.0 0.00 0.00 0.00 75 1009.9
20260505111102 16 230 4.8 0.0 0.00 0.00 0.00 75 1010.0
20260505111002 16 230 4.8 0.0 0.00 0.00 0.00 75 1010.0
20260505110902 16 187 0.0 0.0 0.00 0.00 0.00 73 1010.0
20260505110802 16 187 0.0 0.0 0.00 0.00 0.00 73 1010.1
20260505110701 16 160 0.0 0.0 0.00 0.00 0.00 74 1010.1
20260505110602 16 160 0.0 0.0 0.00 0.00 0.00 74 1010.1
20260505110501 16 65 8.0 0.0 0.00 0.00 0.00 77 1010.1
20260505110402 16 65 8.0 0.0 0.00 0.00 0.00 77 1010.1
20260505110302 16 65 8.0 0.0 0.00 0.00 0.00 77 1010.1
20260505110202 16 65 8.0 0.0 0.00 0.00 0.00 77 1010.1
20260505102201 14 147 0.0 0.0 0.00 0.00 0.00 78 1010.5
20260505102102 14 147 0.0 0.0 0.00 0.00 0.00 78 1010.5
20260505102001 14 147 0.0 0.0 0.00 0.00 0.00 78 1010.5
20260505101902 14 120 0.0 0.0 0.00 0.00 0.00 78 1010.5
20260505101801 14 120 0.0 0.0 0.00 0.00 0.00 78 1010.4
20260505101702 14 82 0.0 0.0 0.00 0.00 0.00 78 1010.4
20260505101602 14 82 0.0 0.0 0.00 0.00 0.00 78 1010.4
20260505101501 14 82 0.0 0.0 0.00 0.00 0.00 78 1010.5
20260505101402 14 80 6.4 0.0 0.00 0.00 0.00 77 1010.5
20260505101301 14 80 6.4 0.0 0.00 0.00 0.00 77 1010.5
20260505101202 14 80 6.4 0.0 0.00 0.00 0.00 77 1010.5
20260505101102 14 72 8.0 0.0 0.00 0.00 0.00 77 1010.5
20260505101001 14 72 8.0 0.0 0.00 0.00 0.00 77 1010.5
20260505100902 15 85 0.0 0.0 0.00 0.00 0.00 77 1010.5
20260505100801 15 85 0.0 0.0 0.00 0.00 0.00 77 1010.5
20260505100702 15 85 0.0 0.0 0.00 0.00 0.00 77 1010.5
20260505100601 15 95 0.0 0.0 0.00 0.00 0.00 78 1010.5
20260505100502 15 95 0.0 0.0 0.00 0.00 0.00 78 1010.5
20260505100402 15 95 0.0 0.0 0.00 0.00 0.00 78 1010.5
20260505100301 15 147 0.0 0.0 0.00 0.00 0.00 78 1010.4
20260505100202 15 147 0.0 0.0 0.00 0.00 0.00 78 1010.5
20260505100101 15 147 0.0 0.0 0.00 0.00 0.00 78 1010.5
20260505100002 15 107 0.0 0.0 0.00 0.00 0.00 76 1010.5
20260505095901 15 107 0.0 0.0 0.00 0.00 0.00 76 1010.5
20260505095802 15 107 0.0 0.0 0.00 0.00 0.00 76 1010.4
20260505095702 15 107 0.0 0.0 0.00 0.00 0.00 76 1010.5
20260505095602 15 107 0.0 0.0 0.00 0.00 0.00 76 1010.5
20260505095502 15 107 0.0 0.0 0.00 0.00 0.00 76 1010.5
20260505095401 15 107 0.0 0.0 0.00 0.00 0.00 76 1010.5
20260505095304 15 90 0.0 0.0 0.00 0.00 0.00 77 1010.4
20260505095201 15 90 0.0 0.0 0.00 0.00 0.00 77 1010.4
20260505095102 15 85 0.0 0.0 0.00 0.00 0.00 76 1010.5
20260505095001 15 85 0.0 0.0 0.00 0.00 0.00 76 1010.4
20260505094901 15 107 0.0 0.0 0.00 0.00 0.00 77 1010.4
20260505094802 15 107 0.0 0.0 0.00 0.00 0.00 77 1010.4
20260505094701 15 107 0.0 0.0 0.00 0.00 0.00 77 1010.4
20260505094602 15 140 0.0 0.0 0.00 0.00 0.00 76 1010.4
20260505094501 15 140 0.0 0.0 0.00 0.00 0.00 76 1010.5
20260505094402 15 190 0.0 0.0 0.00 0.00 0.00 76 1010.4
20260505094302 15 190 0.0 0.0 0.00 0.00 0.00 76 1010.5
20260505094201 15 190 0.0 0.0 0.00 0.00 0.00 76 1010.5
20260505094102 15 12 0.0 0.0 0.00 0.00 0.00 76 1010.5
20260505094001 15 12 0.0 0.0 0.00 0.00 0.00 76 1010.5
20260505093902 15 12 0.0 0.0 0.00 0.00 0.00 76 1010.5
20260505093801 15 12 0.0 0.0 0.00 0.00 0.00 76 1010.5
20260505093702 15 12 0.0 0.0 0.00 0.00 0.00 76 1010.5
20260505093501 15 325 0.0 0.0 0.00 0.00 0.00 77 1010.5
20260505093402 15 250 0.0 0.0 0.00 0.00 0.00 78 1010.5
20260505093301 15 250 0.0 0.0 0.00 0.00 0.00 78 1010.5
20260505093202 15 250 0.0 0.0 0.00 0.00 0.00 78 1010.5
20260505093101 14 175 0.0 0.0 0.00 0.00 0.00 78 1010.5
20260505093002 14 175 0.0 0.0 0.00 0.00 0.00 78 1010.5
20260505092902 14 175 0.0 0.0 0.00 0.00 0.00 78 1010.5
20260505092802 14 217 0.0 0.0 0.00 0.00 0.00 77 1010.5
20260505092702 14 217 0.0 0.0 0.00 0.00 0.00 77 1010.5
20260505092601 14 217 0.0 0.0 0.00 0.00 0.00 78 1010.5
20260505092502 14 217 0.0 0.0 0.00 0.00 0.00 78 1010.5
20260505092401 14 217 0.0 0.0 0.00 0.00 0.00 78 1010.5
20260505092304 14 217 0.0 0.0 0.00 0.00 0.00 78 1010.5
20260505092201 14 217 0.0 0.0 0.00 0.00 0.00 78 1010.5
20260505092102 14 210 0.0 0.0 0.00 0.00 0.00 78 1010.5
20260505092002 14 210 0.0 0.0 0.00 0.00 0.00 78 1010.5
20260505091901 14 247 0.0 0.0 0.00 0.00 0.00 78 1010.5
20260505091802 14 247 0.0 0.0 0.00 0.00 0.00 78 1010.5
20260505091701 14 247 0.0 0.0 0.00 0.00 0.00 78 1010.5
20260505091602 14 247 0.0 0.0 0.00 0.00 0.00 78 1010.5
20260505091502 14 247 0.0 0.0 0.00 0.00 0.00 78 1010.5
20260505091402 14 247 0.0 0.0 0.00 0.00 0.00 78 1010.5
20260505091301 14 247 0.0 0.0 0.00 0.00 0.00 78 1010.5
20260505091202 14 217 0.0 0.0 0.00 0.00 0.00 78 1010.5
20260505091101 14 217 0.0 0.0 0.00 0.00 0.00 78 1010.5
20260505091002 14 217 0.0 0.0 0.00 0.00 0.00 78 1010.5
20260505090902 14 250 0.0 0.0 0.00 0.00 0.00 79 1010.5
20260505090802 14 250 0.0 0.0 0.00 0.00 0.00 79 1010.5
20260505090701 14 250 0.0 0.0 0.00 0.00 0.00 79 1010.5
20260505090602 14 250 0.0 0.0 0.00 0.00 0.00 79 1010.5
20260505090502 14 250 0.0 0.0 0.00 0.00 0.00 79 1010.5
20260505090402 14 250 0.0 0.0 0.00 0.00 0.00 79 1010.5
20260505090302 14 250 0.0 0.0 0.00 0.00 0.00 79 1010.5
20260505090201 14 225 0.0 0.0 0.00 0.00 0.00 80 1010.5
20260505090001 14 225 0.0 0.0 0.00 0.00 0.00 80 1010.5
20260505085902 14 217 0.0 0.0 0.00 0.00 0.00 79 1010.6
20260505085801 14 217 0.0 0.0 0.00 0.00 0.00 79 1010.6
20260505085703 14 217 0.0 0.0 0.00 0.00 0.00 79 1010.6
20260505085601 14 220 0.0 0.0 0.00 0.00 0.00 80 1010.6
20260505085502 14 220 0.0 0.0 0.00 0.00 0.00 80 1010.6
20260505085401 14 220 0.0 0.0 0.00 0.00 0.00 80 1010.6
20260505085304 14 220 0.0 0.0 0.00 0.00 0.00 80 1010.6
20260505085201 14 220 0.0 0.0 0.00 0.00 0.00 80 1010.6
20260505085102 14 220 0.0 0.0 0.00 0.00 0.00 80 1010.6
20260505085002 14 220 0.0 0.0 0.00 0.00 0.00 80 1010.6
20260505084901 14 220 0.0 0.0 0.00 0.00 0.00 80 1010.6
20260505084802 14 220 0.0 0.0 0.00 0.00 0.00 80 1010.6
20260505084701 14 220 0.0 0.0 0.00 0.00 0.00 80 1010.6
20260505084602 14 220 0.0 0.0 0.00 0.00 0.00 80 1010.7
20260505084501 14 220 0.0 0.0 0.00 0.00 0.00 80 1010.6
20260505084402 14 220 0.0 0.0 0.00 0.00 0.00 80 1010.7
20260505084302 14 220 0.0 0.0 0.00 0.00 0.00 81 1010.6
20260505084202 14 220 0.0 0.0 0.00 0.00 0.00 81 1010.6
20260505084102 13 217 0.0 0.0 0.00 0.00 0.00 81 1010.7
20260505084003 13 217 0.0 0.0 0.00 0.00 0.00 81 1010.7
20260505083902 13 225 0.0 0.0 0.00 0.00 0.00 82 1010.7
20260505083802 13 225 0.0 0.0 0.00 0.00 0.00 82 1010.7
20260505083701 13 225 0.0 0.0 0.00 0.00 0.00 82 1010.7
20260505083602 13 225 0.0 0.0 0.00 0.00 0.00 82 1010.7
20260505083501 13 225 0.0 0.0 0.00 0.00 0.00 82 1010.7
20260505083402 13 225 0.0 0.0 0.00 0.00 0.00 82 1010.7
20260505083301 13 105 0.0 0.0 0.00 0.00 0.00 82 1010.7
20260505083202 13 105 0.0 0.0 0.00 0.00 0.00 82 1010.7
20260505083101 13 105 0.0 0.0 0.00 0.00 0.00 82 1010.7
20260505083002 13 27 0.0 0.0 0.00 0.00 0.00 82 1010.7
20260505082901 13 27 0.0 0.0 0.00 0.00 0.00 82 1010.7
20260505082502 13 122 0.0 0.0 0.00 0.00 0.00 84 1010.7
20260505082402 13 122 0.0 0.0 0.00 0.00 0.00 84 1010.7
20260505082304 13 235 0.0 0.0 0.00 0.00 0.00 85 1010.7
20260505082202 13 235 0.0 0.0 0.00 0.00 0.00 85 1010.7
20260505082101 13 235 0.0 0.0 0.00 0.00 0.00 85 1010.7
20260505082002 13 210 0.0 0.0 0.00 0.00 0.00 85 1010.7
20260505081902 13 210 0.0 0.0 0.00 0.00 0.00 85 1010.7
20260505081802 13 295 0.0 0.0 0.00 0.00 0.00 85 1010.7
20260505081702 13 295 0.0 0.0 0.00 0.00 0.00 85 1010.7
20260505081601 13 295 0.0 0.0 0.00 0.00 0.00 85 1010.6
20260505081502 12 255 0.0 0.0 0.00 0.00 0.00 85 1010.6
20260505081401 12 255 0.0 0.0 0.00 0.00 0.00 85 1010.6
20260505081302 12 180 0.0 0.0 0.00 0.00 0.00 86 1010.6
20260505081201 12 180 0.0 0.0 0.00 0.00 0.00 86 1010.6
20260505081102 12 180 0.0 0.0 0.00 0.00 0.00 86 1010.6
20260505081002 12 180 0.0 0.0 0.00 0.00 0.00 86 1010.7
20260505080902 12 180 0.0 0.0 0.00 0.00 0.00 86 1010.6
20260505080802 12 232 0.0 0.0 0.00 0.00 0.00 87 1010.6
20260505080701 12 232 0.0 0.0 0.00 0.00 0.00 87 1010.6
20260505080602 12 232 0.0 0.0 0.00 0.00 0.00 87 1010.6
20260505080501 12 232 0.0 0.0 0.00 0.00 0.00 87 1010.6
20260505080402 12 232 0.0 0.0 0.00 0.00 0.00 87 1010.6
20260505080302 12 227 0.0 0.0 0.00 0.00 0.00 87 1010.7
20260505080202 12 227 0.0 0.0 0.00 0.00 0.00 87 1010.6
20260505080002 12 192 0.0 0.0 0.00 0.00 0.00 88 1010.6
20260505075902 12 192 0.0 0.0 0.00 0.00 0.00 88 1010.6
20260505075801 12 192 0.0 0.0 0.00 0.00 0.00 88 1010.6
20260505075702 12 192 0.0 0.0 0.00 0.00 0.00 88 1010.6
20260505075601 12 192 0.0 0.0 0.00 0.00 0.00 88 1010.7
20260505075502 12 210 0.0 0.0 0.00 0.00 0.00 90 1010.6
20260505075401 12 210 0.0 0.0 0.00 0.00 0.00 90 1010.6
20260505075304 12 210 0.0 0.0 0.00 0.00 0.00 90 1010.6
20260505075201 12 210 0.0 0.0 0.00 0.00 0.00 90 1010.7
20260505075102 12 210 0.0 0.0 0.00 0.00 0.00 90 1010.6
20260505075001 12 212 0.0 0.0 0.00 0.00 0.00 90 1010.7
20260505074902 12 212 0.0 0.0 0.00 0.00 0.00 90 1010.7
20260505074802 12 212 0.0 0.0 0.00 0.00 0.00 90 1010.7
20260505074702 12 190 0.0 0.0 0.00 0.00 0.00 90 1010.7
20260505074602 12 190 0.0 0.0 0.00 0.00 0.00 90 1010.7
20260505074501 12 165 0.0 0.0 0.00 0.00 0.00 91 1010.7
20260505074402 12 165 0.0 0.0 0.00 0.00 0.00 91 1010.7
20260505074301 12 185 0.0 0.0 0.00 0.00 0.00 91 1010.7
20260505074202 12 185 0.0 0.0 0.00 0.00 0.00 91 1010.7
20260505074101 12 185 0.0 0.0 0.00 0.00 0.00 91 1010.8
20260505074002 12 185 0.0 0.0 0.00 0.00 0.00 91 1010.7
20260505073901 12 185 0.0 0.0 0.00 0.00 0.00 91 1010.8
20260505073802 11 200 0.0 0.0 0.00 0.00 0.00 92 1010.8
20260505073702 11 200 0.0 0.0 0.00 0.00 0.00 92 1010.7
20260505073601 11 200 0.0 0.0 0.00 0.00 0.00 92 1010.7
20260505073502 11 200 0.0 0.0 0.00 0.00 0.00 92 1010.7
20260505073401 11 200 0.0 0.0 0.00 0.00 0.00 92 1010.7
20260505073302 11 200 0.0 0.0 0.00 0.00 0.00 92 1010.7
20260505073201 11 200 0.0 0.0 0.00 0.00 0.00 92 1010.7
20260505073102 11 200 0.0 0.0 0.00 0.00 0.00 92 1010.7
20260505073002 11 200 0.0 0.0 0.00 0.00 0.00 92 1010.8
20260505072902 11 200 0.0 0.0 0.00 0.00 0.00 92 1010.7
20260505072802 11 200 0.0 0.0 0.00 0.00 0.00 92 1010.8
20260505072701 11 200 0.0 0.0 0.00 0.00 0.00 92 1010.8
20260505072602 11 200 0.0 0.0 0.00 0.00 0.00 92 1010.7
20260505072501 11 200 0.0 0.0 0.00 0.00 0.00 92 1010.7
20260505072402 11 225 0.0 0.0 0.00 0.00 0.00 92 1010.7
20260505072302 11 225 0.0 0.0 0.00 0.00 0.00 92 1010.7
20260505072202 11 225 0.0 0.0 0.00 0.00 0.00 92 1010.8
20260505072102 11 225 0.0 0.0 0.00 0.00 0.00 92 1010.8
20260505072001 11 225 0.0 0.0 0.00 0.00 0.00 92 1010.7
20260505071902 11 225 0.0 0.0 0.00 0.00 0.00 92 1010.7
20260505071801 11 225 0.0 0.0 0.00 0.00 0.00 92 1010.7
20260505071702 11 220 0.0 0.0 0.00 0.00 0.00 92 1010.7
20260505071601 11 220 0.0 0.0 0.00 0.00 0.00 92 1010.7
20260505071502 11 220 0.0 0.0 0.00 0.00 0.00 92 1010.7
20260505071402 11 220 0.0 0.0 0.00 0.00 0.00 92 1010.7
20260505071302 11 220 0.0 0.0 0.00 0.00 0.00 92 1010.7
20260505071202 11 230 0.0 0.0 0.00 0.00 0.00 92 1010.7
20260505071101 11 230 0.0 0.0 0.00 0.00 0.00 92 1010.7
20260505071002 11 230 0.0 0.0 0.00 0.00 0.00 92 1010.8
20260505070901 11 230 0.0 0.0 0.00 0.00 0.00 92 1010.8
20260505070802 11 230 0.0 0.0 0.00 0.00 0.00 92 1010.8
20260505070701 11 230 0.0 0.0 0.00 0.00 0.00 92 1010.8
20260505070602 11 230 0.0 0.0 0.00 0.00 0.00 92 1010.8
20260505070501 11 230 0.0 0.0 0.00 0.00 0.00 92 1010.8
20260505070402 11 220 0.0 0.0 0.00 0.00 0.00 92 1010.8
20260505070302 11 220 0.0 0.0 0.00 0.00 0.00 92 1010.8
20260505070202 11 220 0.0 0.0 0.00 0.00 0.00 92 1010.8
20260505070001 11 207 0.0 0.0 0.00 0.00 0.00 92 1010.8
20260505065902 11 207 0.0 0.0 0.00 0.00 0.00 92 1010.8
20260505065801 11 207 0.0 0.0 0.00 0.00 0.00 92 1010.8
20260505065702 11 205 0.0 0.0 0.00 0.00 0.00 92 1010.8
20260505065602 11 205 0.0 0.0 0.00 0.00 0.00 92 1010.8
20260505065501 11 205 0.0 0.0 0.00 0.00 0.00 92 1010.8
20260505065402 11 25 0.0 0.0 0.00 0.00 0.00 92 1010.7
20260505065303 11 25 0.0 0.0 0.00 0.00 0.00 92 1010.8
20260505065202 11 25 0.0 0.0 0.00 0.00 0.00 92 1010.8
20260505065101 11 25 0.0 0.0 0.00 0.00 0.00 92 1010.8
20260505065002 11 25 0.0 0.0 0.00 0.00 0.00 92 1010.8
20260505064901 11 25 0.0 0.0 0.00 0.00 0.00 92 1010.8
20260505064802 11 25 0.0 0.0 0.00 0.00 0.00 92 1010.9
20260505064702 11 25 0.0 0.0 0.00 0.00 0.00 92 1010.8
20260505064601 11 25 0.0 0.0 0.00 0.00 0.00 92 1010.8
20260505064502 11 30 0.0 0.0 0.00 0.00 0.00 92 1010.8
20260505064401 11 30 0.0 0.0 0.00 0.00 0.00 92 1010.9
20260505064302 11 30 0.0 0.0 0.00 0.00 0.00 92 1010.9
20260505064201 11 345 0.0 0.0 0.00 0.00 0.00 92 1010.9
20260505064102 11 345 0.0 0.0 0.00 0.00 0.00 92 1010.9
20260505064002 11 345 0.0 0.0 0.00 0.00 0.00 92 1010.9
20260505063902 11 345 0.0 0.0 0.00 0.00 0.00 92 1010.9
20260505063802 11 345 0.0 0.0 0.00 0.00 0.00 92 1011.0
20260505063701 11 345 0.0 0.0 0.00 0.00 0.00 92 1011.0
20260505063602 11 345 0.0 0.0 0.00 0.00 0.00 92 1011.0
20260505063501 11 345 0.0 0.0 0.00 0.00 0.00 92 1011.0
20260505063402 11 345 0.0 0.0 0.00 0.00 0.00 92 1011.0
20260505063302 11 345 0.0 0.0 0.00 0.00 0.00 92 1011.0
20260505063201 11 345 0.0 0.0 0.00 0.00 0.00 92 1011.0
20260505063102 11 345 0.0 0.0 0.00 0.00 0.00 92 1011.2
20260505063001 11 345 0.0 0.0 0.00 0.00 0.00 92 1011.2
20260505062902 11 345 0.0 0.0 0.00 0.00 0.00 92 1011.0
20260505062801 11 345 0.0 0.0 0.00 0.00 0.00 92 1011.2
20260505062702 11 345 0.0 0.0 0.00 0.00 0.00 92 1011.2
20260505062601 11 345 0.0 0.0 0.00 0.00 0.00 92 1011.0
20260505062502 11 345 0.0 0.0 0.00 0.00 0.00 92 1011.0
20260505062402 11 345 0.0 0.0 0.00 0.00 0.00 92 1011.2
20260505062301 11 345 0.0 0.0 0.00 0.00 0.00 92 1011.2
20260505062202 11 345 0.0 0.0 0.00 0.00 0.00 92 1011.2
20260505062101 11 345 0.0 0.0 0.00 0.00 0.00 92 1011.2
20260505062002 11 345 0.0 0.0 0.00 0.00 0.00 92 1011.2
20260505061602 11 345 0.0 0.0 0.00 0.00 0.00 92 1011.2
20260505061502 11 345 0.0 0.0 0.00 0.00 0.00 92 1011.0
20260505061402 11 345 0.0 0.0 0.00 0.00 0.00 92 1011.2
20260505061301 11 345 0.0 0.0 0.00 0.00 0.00 92 1011.2
20260505061202 11 357 0.0 0.0 0.00 0.00 0.00 92 1011.2
20260505061101 11 357 0.0 0.0 0.00 0.00 0.00 92 1011.2
20260505061002 11 357 0.0 0.0 0.00 0.00 0.00 92 1011.2
20260505060901 11 150 0.0 0.0 0.00 0.00 0.00 92 1011.3
20260505060802 11 150 0.0 0.0 0.00 0.00 0.00 92 1011.2
20260505060702 11 150 0.0 0.0 0.00 0.00 0.00 92 1011.2
20260505060602 11 150 0.0 0.0 0.00 0.00 0.00 92 1011.3
20260505060502 11 150 0.0 0.0 0.00 0.00 0.00 92 1011.2
20260505060401 11 150 0.0 0.0 0.00 0.00 0.00 92 1011.3
20260505060302 11 150 0.0 0.0 0.00 0.00 0.00 92 1011.3
20260505060201 10 165 0.0 0.0 0.00 0.00 0.00 92 1011.2
20260505060001 10 165 0.0 0.0 0.00 0.00 0.00 92 1011.2
20260505055902 10 165 0.0 0.0 0.00 0.00 0.00 92 1011.2
20260505055802 10 165 0.0 0.0 0.00 0.00 0.00 92 1011.2
20260505055701 10 165 0.0 0.0 0.00 0.00 0.00 92 1011.2
20260505055602 10 142 0.0 0.0 0.00 0.00 0.00 92 1011.0
20260505055501 10 142 0.0 0.0 0.00 0.00 0.00 92 1011.2
20260505055402 10 142 0.0 0.0 0.00 0.00 0.00 92 1011.2
20260505055303 10 150 0.0 0.0 0.00 0.00 0.00 92 1011.2
20260505055202 10 150 0.0 0.0 0.00 0.00 0.00 92 1011.2
20260505055101 10 175 0.0 0.0 0.00 0.00 0.00 92 1011.0
20260505055001 10 175 0.0 0.0 0.00 0.00 0.00 92 1011.2
20260505054902 10 187 0.0 0.0 0.00 0.00 0.00 92 1011.2
20260505054801 10 187 0.0 0.0 0.00 0.00 0.00 92 1011.0
20260505054702 10 187 0.0 0.0 0.00 0.00 0.00 92 1011.0
20260505054601 10 222 0.0 0.0 0.00 0.00 0.00 92 1011.0
20260505054502 10 222 0.0 0.0 0.00 0.00 0.00 92 1011.0
20260505054401 10 222 0.0 0.0 0.00 0.00 0.00 92 1010.9
20260505054302 10 232 0.0 0.0 0.00 0.00 0.00 92 1011.0
20260505054201 10 232 0.0 0.0 0.00 0.00 0.00 92 1011.0
20260505054101 10 232 0.0 0.0 0.00 0.00 0.00 92 1011.0
20260505054002 10 232 0.0 0.0 0.00 0.00 0.00 92 1011.0
20260505053901 10 222 0.0 0.0 0.00 0.00 0.00 92 1011.0
20260505053802 10 222 0.0 0.0 0.00 0.00 0.00 92 1010.9
20260505053702 10 222 0.0 0.0 0.00 0.00 0.00 92 1011.0
20260505053602 10 220 0.0 0.0 0.00 0.00 0.00 92 1011.0
20260505053502 10 220 0.0 0.0 0.00 0.00 0.00 92 1011.0
20260505053401 10 220 0.0 0.0 0.00 0.00 0.00 92 1011.0
20260505053302 10 217 0.0 0.0 0.00 0.00 0.00 92 1011.0
20260505053201 10 217 0.0 0.0 0.00 0.00 0.00 92 1011.0
20260505053102 10 217 0.0 0.0 0.00 0.00 0.00 92 1011.2
20260505053001 10 217 0.0 0.0 0.00 0.00 0.00 92 1011.0
20260505052902 10 217 0.0 0.0 0.00 0.00 0.00 92 1011.2
20260505052802 10 215 0.0 0.0 0.00 0.00 0.00 92 1011.2
20260505052701 10 215 0.0 0.0 0.00 0.00 0.00 92 1011.0
20260505052602 10 215 0.0 0.0 0.00 0.00 0.00 92 1011.0
20260505052501 10 215 0.0 0.0 0.00 0.00 0.00 92 1011.2
20260505052402 10 215 0.0 0.0 0.00 0.00 0.00 92 1011.2
20260505052301 10 215 0.0 0.0 0.00 0.00 0.00 92 1011.2
20260505052202 10 215 0.0 0.0 0.00 0.00 0.00 92 1011.2
20260505052101 10 215 0.0 0.0 0.00 0.00 0.00 92 1011.2
20260505052002 10 217 0.0 0.0 0.00 0.00 0.00 92 1011.0
20260505051902 10 217 0.0 0.0 0.00 0.00 0.00 92 1011.2
20260505051801 10 217 0.0 0.0 0.00 0.00 0.00 92 1011.0
20260505051702 10 217 0.0 0.0 0.00 0.00 0.00 92 1011.0
20260505051601 10 217 0.0 0.0 0.00 0.00 0.00 92 1011.0
20260505051502 10 167 0.0 0.0 0.00 0.00 0.00 92 1011.0
20260505051401 10 167 0.0 0.0 0.00 0.00 0.00 92 1011.0
20260505051302 10 167 0.0 0.0 0.00 0.00 0.00 92 1011.0
20260505051202 10 167 0.0 0.0 0.00 0.00 0.00 92 1011.0
20260505051102 10 167 0.0 0.0 0.00 0.00 0.00 92 1011.0
20260505051002 10 160 0.0 0.0 0.00 0.00 0.00 92 1011.0
20260505050901 10 160 0.0 0.0 0.00 0.00 0.00 92 1011.0
20260505050802 10 170 0.0 0.0 0.00 0.00 0.00 92 1011.2
20260505050701 10 170 0.0 0.0 0.00 0.00 0.00 92 1011.0
20260505050602 10 170 0.0 0.0 0.00 0.00 0.00 92 1011.2
20260505050501 10 172 0.0 0.0 0.00 0.00 0.00 92 1011.2
20260505050402 10 172 0.0 0.0 0.00 0.00 0.00 92 1011.0
20260505050302 10 172 0.0 0.0 0.00 0.00 0.00 92 1011.0
20260505050202 10 172 0.0 0.0 0.00 0.00 0.00 92 1011.0
20260505041702 10 95 0.0 0.0 0.00 0.00 0.00 92 1011.3
20260505041601 10 95 0.0 0.0 0.00 0.00 0.00 92 1011.3
20260505041502 10 95 0.0 0.0 0.00 0.00 0.00 92 1011.3
20260505041401 10 95 0.0 0.0 0.00 0.00 0.00 92 1011.3
20260505041302 10 95 0.0 0.0 0.00 0.00 0.00 92 1011.4
20260505041201 10 95 0.0 0.0 0.00 0.00 0.00 92 1011.3
20260505041102 10 87 0.0 0.0 0.00 0.00 0.00 92 1011.3
20260505041002 10 87 0.0 0.0 0.00 0.00 0.00 92 1011.3
20260505040902 10 82 0.0 0.0 0.00 0.00 0.00 92 1011.4
20260505040801 10 82 0.0 0.0 0.00 0.00 0.00 92 1011.3
20260505040701 10 82 0.0 0.0 0.00 0.00 0.00 92 1011.4
20260505040602 10 82 0.0 0.0 0.00 0.00 0.00 92 1011.3
20260505040501 10 82 0.0 0.0 0.00 0.00 0.00 92 1011.3
20260505040402 10 82 0.0 0.0 0.00 0.00 0.00 92 1011.3
20260505040301 10 82 0.0 0.0 0.00 0.00 0.00 92 1011.3
20260505040202 10 82 0.0 0.0 0.00 0.00 0.00 92 1011.3
20260505040001 10 82 0.0 0.0 0.00 0.00 0.00 92 1011.3
20260505035902 10 82 0.0 0.0 0.00 0.00 0.00 92 1011.3
20260505035801 10 82 0.0 0.0 0.00 0.00 0.00 92 1011.3
20260505035702 10 82 0.0 0.0 0.00 0.00 0.00 92 1011.3
20260505035601 10 82 0.0 0.0 0.00 0.00 0.00 92 1011.3
20260505035502 10 82 0.0 0.0 0.00 0.00 0.00 92 1011.3
20260505035402 10 82 0.0 0.0 0.00 0.00 0.00 92 1011.3
20260505035301 10 82 0.0 0.0 0.00 0.00 0.00 92 1011.3
20260505035202 10 82 0.0 0.0 0.00 0.00 0.00 92 1011.3
20260505035101 10 82 0.0 0.0 0.00 0.00 0.00 92 1011.3
20260505035002 10 82 0.0 0.0 0.00 0.00 0.00 92 1011.2
20260505034901 10 82 0.0 0.0 0.00 0.00 0.00 92 1011.3
20260505034802 10 82 0.0 0.0 0.00 0.00 0.00 92 1011.3
20260505034701 10 82 0.0 0.0 0.00 0.00 0.00 92 1011.2
20260505034602 10 82 0.0 0.0 0.00 0.00 0.00 92 1011.2
20260505034501 10 82 0.0 0.0 0.00 0.00 0.00 92 1011.3
20260505034402 10 82 0.0 0.0 0.00 0.00 0.00 92 1011.2
20260505034302 10 82 0.0 0.0 0.00 0.00 0.00 92 1011.2
20260505034202 10 82 0.0 0.0 0.00 0.00 0.00 92 1011.2
20260505034102 10 82 0.0 0.0 0.00 0.00 0.00 92 1011.2
20260505034001 10 82 0.0 0.0 0.00 0.00 0.00 92 1011.2
20260505033902 10 82 0.0 0.0 0.00 0.00 0.00 92 1011.2
20260505033801 10 82 0.0 0.0 0.00 0.00 0.00 92 1011.2
20260505033702 10 82 0.0 0.0 0.00 0.00 0.00 92 1011.3
20260505033601 10 82 0.0 0.0 0.00 0.00 0.00 92 1011.3
20260505033502 10 82 0.0 0.0 0.00 0.00 0.00 92 1011.3
20260505033401 10 82 0.0 0.0 0.00 0.00 0.00 92 1011.3
20260505033302 10 82 0.0 0.0 0.00 0.00 0.00 92 1011.3
20260505033202 10 82 0.0 0.0 0.00 0.00 0.00 92 1011.3
20260505033101 10 82 0.0 0.0 0.00 0.00 0.00 92 1011.3
20260505033002 10 82 0.0 0.0 0.00 0.00 0.00 92 1011.4
20260505032901 10 82 0.0 0.0 0.00 0.00 0.00 92 1011.3
20260505032802 10 82 0.0 0.0 0.00 0.00 0.00 92 1011.4
20260505032701 10 82 0.0 0.0 0.00 0.00 0.00 92 1011.4
20260505032602 10 82 0.0 0.0 0.00 0.00 0.00 92 1011.4
20260505032502 10 82 0.0 0.0 0.00 0.00 0.00 92 1011.4
20260505032401 10 82 0.0 0.0 0.00 0.00 0.00 92 1011.4
20260505032304 10 82 0.0 0.0 0.00 0.00 0.00 92 1011.4
20260505032201 10 82 0.0 0.0 0.00 0.00 0.00 92 1011.4
20260505032102 10 82 0.0 0.0 0.00 0.00 0.00 92 1011.4
20260505032001 10 82 0.0 0.0 0.00 0.00 0.00 92 1011.4
20260505031902 10 82 0.0 0.0 0.00 0.00 0.00 92 1011.5
20260505031802 10 82 0.0 0.0 0.00 0.00 0.00 92 1011.5
20260505031701 10 82 0.0 0.0 0.00 0.00 0.00 92 1011.5
20260505031602 10 82 0.0 0.0 0.00 0.00 0.00 92 1011.4
20260505031501 10 82 0.0 0.0 0.00 0.00 0.00 92 1011.4
20260505031402 10 82 0.0 0.0 0.00 0.00 0.00 92 1011.5
20260505031301 10 82 0.0 0.0 0.00 0.00 0.00 92 1011.5
20260505031202 10 82 0.0 0.0 0.00 0.00 0.00 92 1011.5
20260505031102 10 82 0.0 0.0 0.00 0.00 0.00 92 1011.5
20260505031001 10 82 0.0 0.0 0.00 0.00 0.00 92 1011.4
20260505030902 10 82 0.0 0.0 0.00 0.00 0.00 92 1011.5
20260505030801 10 82 0.0 0.0 0.00 0.00 0.00 92 1011.5
20260505030702 10 82 0.0 0.0 0.00 0.00 0.00 92 1011.5
20260505030601 10 82 0.0 0.0 0.00 0.00 0.00 92 1011.6
20260505030502 10 82 0.0 0.0 0.00 0.00 0.00 92 1011.6
20260505030402 10 82 0.0 0.0 0.00 0.00 0.00 92 1011.6
20260505030302 10 82 0.0 0.0 0.00 0.00 0.00 92 1011.6
20260505030202 10 82 0.0 0.0 0.00 0.00 0.00 92 1011.6
20260505030002 10 82 0.0 0.0 0.00 0.00 0.00 92 1011.6
20260505025901 10 82 0.0 0.0 0.00 0.00 0.00 92 1011.6
20260505025802 10 82 0.0 0.0 0.00 0.00 0.00 92 1011.6
20260505025701 10 82 0.0 0.0 0.00 0.00 0.00 92 1011.6
20260505025602 10 82 0.0 0.0 0.00 0.00 0.00 92 1011.6
20260505025502 10 82 0.0 0.0 0.00 0.00 0.00 92 1011.6
20260505025401 10 82 0.0 0.0 0.00 0.00 0.00 92 1011.6
20260505025304 10 82 0.0 0.0 0.00 0.00 0.00 92 1011.6
20260505025201 10 82 0.0 0.0 0.00 0.00 0.00 92 1011.6
20260505025102 10 82 0.0 0.0 0.00 0.00 0.00 92 1011.6
20260505025002 10 82 0.0 0.0 0.00 0.00 0.00 92 1011.6
20260505024902 10 82 0.0 0.0 0.00 0.00 0.00 92 1011.6
20260505024802 10 82 0.0 0.0 0.00 0.00 0.00 92 1011.6
20260505024702 10 82 0.0 0.0 0.00 0.00 0.00 92 1011.6
20260505024602 10 82 0.0 0.0 0.00 0.00 0.00 92 1011.6
20260505024501 10 82 0.0 0.0 0.00 0.00 0.00 92 1011.6
20260505024402 10 82 0.0 0.0 0.00 0.00 0.00 92 1011.6
20260505024301 10 82 0.0 0.0 0.00 0.00 0.00 92 1011.6
20260505024202 10 82 0.0 0.0 0.00 0.00 0.00 92 1011.7
20260505024102 10 82 0.0 0.0 0.00 0.00 0.00 92 1011.6
20260505024001 10 82 0.0 0.0 0.00 0.00 0.00 92 1011.6
20260505023902 10 82 0.0 0.0 0.00 0.00 0.00 92 1011.7
20260505023801 10 82 0.0 0.0 0.00 0.00 0.00 92 1011.6
20260505023702 10 82 0.0 0.0 0.00 0.00 0.00 92 1011.7
20260505023601 10 82 0.0 0.0 0.00 0.00 0.00 92 1011.7
20260505023502 10 82 0.0 0.0 0.00 0.00 0.00 92 1011.7
20260505023402 10 82 0.0 0.0 0.00 0.00 0.00 92 1011.7
20260505023302 10 82 0.0 0.0 0.00 0.00 0.00 92 1011.7
20260505023202 10 82 0.0 0.0 0.00 0.00 0.00 92 1011.7
20260505023101 10 82 0.0 0.0 0.00 0.00 0.00 92 1011.7
20260505023002 10 80 0.0 0.0 0.00 0.00 0.00 92 1011.8
20260505022901 10 80 0.0 0.0 0.00 0.00 0.00 92 1011.7
20260505022802 10 80 0.0 0.0 0.00 0.00 0.00 92 1011.8
20260505022701 10 80 0.0 0.0 0.00 0.00 0.00 92 1011.8
20260505022602 10 80 0.0 0.0 0.00 0.00 0.00 92 1011.8
20260505022502 10 80 0.0 0.0 0.00 0.00 0.00 92 1011.8
20260505022401 10 80 0.0 0.0 0.00 0.00 0.00 92 1011.7
20260505022304 10 80 0.0 0.0 0.00 0.00 0.00 92 1011.7
20260505022201 10 80 0.0 0.0 0.00 0.00 0.00 92 1011.8
20260505022102 10 80 0.0 0.0 0.00 0.00 0.00 92 1011.8
20260505022001 10 80 0.0 0.0 0.00 0.00 0.00 92 1011.8
20260505021902 10 80 0.0 0.0 0.00 0.00 0.00 92 1011.8
20260505021802 10 80 0.0 0.0 0.00 0.00 0.00 92 1011.8
20260505021702 10 80 0.0 0.0 0.00 0.00 0.00 92 1011.8
20260505021602 10 80 0.0 0.0 0.00 0.00 0.00 92 1011.8
20260505021501 10 80 0.0 0.0 0.00 0.00 0.00 92 1011.8
20260505021402 10 80 0.0 0.0 0.00 0.00 0.00 92 1011.8
20260505021301 10 80 0.0 0.0 0.00 0.00 0.00 92 1011.8
20260505021202 10 70 0.0 0.0 0.00 0.00 0.00 92 1011.8
20260505021102 10 70 0.0 0.0 0.00 0.00 0.00 92 1011.9
20260505021002 10 67 0.0 0.0 0.00 0.00 0.00 92 1011.8
20260505020801 10 65 0.0 0.0 0.00 0.00 0.00 92 1011.8
20260505020702 10 65 0.0 0.0 0.00 0.00 0.00 92 1011.8
20260505020601 10 65 0.0 0.0 0.00 0.00 0.00 92 1011.8
20260505020502 10 65 0.0 0.0 0.00 0.00 0.00 92 1011.8
20260505020401 10 65 0.0 0.0 0.00 0.00 0.00 92 1011.8
20260505020302 10 65 0.0 0.0 0.00 0.00 0.00 92 1011.9
20260505020202 10 65 0.0 0.0 0.00 0.00 0.00 92 1011.9
20260505020002 10 65 0.0 0.0 0.00 0.00 0.00 92 1011.9
20260505015901 10 65 0.0 0.0 0.00 0.00 0.00 92 1011.9
20260505015802 10 65 0.0 0.0 0.00 0.00 0.00 92 1011.9
20260505015701 10 50 0.0 0.0 0.00 0.00 0.00 92 1011.9
20260505015602 10 50 0.0 0.0 0.00 0.00 0.00 92 1011.9
20260505015502 10 45 0.0 0.0 0.00 0.00 0.00 92 1011.9
20260505015401 10 45 0.0 0.0 0.00 0.00 0.00 92 1011.9
20260505015303 10 52 0.0 0.0 0.00 0.00 0.00 92 1011.9
20260505015201 10 52 0.0 0.0 0.00 0.00 0.00 92 1011.9
20260505015102 10 52 0.0 0.0 0.00 0.00 0.00 92 1011.9
20260505015002 10 52 4.8 0.0 0.00 0.00 0.00 91 1011.9
20260505014901 10 52 4.8 0.0 0.00 0.00 0.00 91 1011.9
20260505014802 10 52 4.8 0.0 0.00 0.00 0.00 91 1011.9
20260505014701 10 47 4.8 0.0 0.00 0.00 0.00 91 1012.0
20260505014602 10 47 4.8 0.0 0.00 0.00 0.00 91 1011.9
20260505014502 10 60 0.0 0.0 0.00 0.00 0.00 91 1012.0
20260505014402 10 60 0.0 0.0 0.00 0.00 0.00 91 1011.9
20260505014302 10 60 0.0 0.0 0.00 0.00 0.00 91 1012.0
20260505014201 10 37 6.4 0.0 0.00 0.00 0.00 91 1012.0
20260505014102 10 37 6.4 0.0 0.00 0.00 0.00 91 1012.0
20260505014001 10 37 6.4 0.0 0.00 0.00 0.00 91 1012.0
20260505013902 10 37 6.4 0.0 0.00 0.00 0.00 91 1012.0
20260505013801 10 37 6.4 0.0 0.00 0.00 0.00 91 1012.0
20260505013702 10 57 0.0 0.0 0.00 0.00 0.00 91 1012.0
20260505013602 10 57 0.0 0.0 0.00 0.00 0.00 91 1011.9
20260505013501 10 57 0.0 0.0 0.00 0.00 0.00 91 1012.0
20260505013402 10 57 0.0 0.0 0.00 0.00 0.00 91 1012.0
20260505013301 10 57 0.0 0.0 0.00 0.00 0.00 91 1012.0
20260505013202 10 57 0.0 0.0 0.00 0.00 0.00 91 1012.0
20260505013102 10 57 0.0 0.0 0.00 0.00 0.00 91 1012.0
20260505012902 10 47 4.8 0.0 0.00 0.00 0.00 91 1012.0
20260505012801 10 47 4.8 0.0 0.00 0.00 0.00 91 1012.0
20260505012702 10 52 4.8 0.0 0.00 0.00 0.00 91 1012.1
20260505012601 10 52 4.8 0.0 0.00 0.00 0.00 91 1012.1
20260505012502 10 52 4.8 0.0 0.00 0.00 0.00 91 1012.0
20260505012402 10 50 6.4 0.0 0.00 0.00 0.00 91 1012.1
20260505012304 10 50 6.4 0.0 0.00 0.00 0.00 91 1012.1
20260505012202 10 160 0.0 0.0 0.00 0.00 0.00 91 1012.1
20260505012102 10 160 0.0 0.0 0.00 0.00 0.00 91 1012.1
20260505012002 10 160 0.0 0.0 0.00 0.00 0.00 91 1012.2
20260505011901 10 160 0.0 0.0 0.00 0.00 0.00 91 1012.2
20260505011802 10 160 0.0 0.0 0.00 0.00 0.00 91 1012.1
20260505011702 10 160 0.0 0.0 0.00 0.00 0.00 91 1012.1
20260505011602 10 160 0.0 0.0 0.00 0.00 0.00 91 1012.1
20260505011502 10 160 0.0 0.0 0.00 0.00 0.00 91 1012.1
20260505011401 10 160 0.0 0.0 0.00 0.00 0.00 91 1012.1
20260505011302 10 160 0.0 0.0 0.00 0.00 0.00 91 1012.1
20260505011201 10 160 0.0 0.0 0.00 0.00 0.00 91 1012.1
20260505011102 10 160 0.0 0.0 0.00 0.00 0.00 91 1012.1
20260505011001 10 160 0.0 0.0 0.00 0.00 0.00 91 1012.1
20260505010902 10 160 0.0 0.0 0.00 0.00 0.00 91 1012.1
20260505010802 10 160 0.0 0.0 0.00 0.00 0.00 91 1012.1
20260505010701 10 160 0.0 0.0 0.00 0.00 0.00 91 1012.1
20260505010602 10 160 0.0 0.0 0.00 0.00 0.00 91 1012.1
20260505010501 10 160 0.0 0.0 0.00 0.00 0.00 91 1012.1
20260505010402 10 160 0.0 0.0 0.00 0.00 0.00 91 1012.1
20260505010302 10 160 0.0 0.0 0.00 0.00 0.00 91 1012.0
20260505010201 10 160 0.0 0.0 0.00 0.00 0.00 91 1012.1
20260505010001 10 160 0.0 0.0 0.00 0.00 0.00 91 1012.1
20260505005902 10 160 0.0 0.0 0.00 0.00 0.00 91 1012.2
20260505005802 10 160 0.0 0.0 0.00 0.00 0.00 91 1012.2
20260505005702 10 160 0.0 0.0 0.00 0.00 0.00 91 1012.2
20260505005602 10 160 0.0 0.0 0.00 0.00 0.00 91 1012.2
20260505005501 10 160 0.0 0.0 0.00 0.00 0.00 91 1012.2
20260505005402 10 160 0.0 0.0 0.00 0.00 0.00 91 1012.2
20260505005303 10 160 0.0 0.0 0.00 0.00 0.00 91 1012.2
20260505005202 10 160 0.0 0.0 0.00 0.00 0.00 91 1012.2
20260505005102 10 160 0.0 0.0 0.00 0.00 0.00 91 1012.2
20260505005002 10 160 0.0 0.0 0.00 0.00 0.00 91 1012.2
20260505004902 10 160 0.0 0.0 0.00 0.00 0.00 91 1012.2
20260505004801 10 160 0.0 0.0 0.00 0.00 0.00 91 1012.2
20260505004702 10 160 0.0 0.0 0.00 0.00 0.00 91 1012.2
20260505004601 10 160 0.0 0.0 0.00 0.00 0.00 91 1012.2
20260505004502 10 160 0.0 0.0 0.00 0.00 0.00 91 1012.2
20260505004402 10 160 0.0 0.0 0.00 0.00 0.00 91 1012.2
20260505004302 10 160 0.0 0.0 0.00 0.00 0.00 91 1012.2
20260505004202 10 160 0.0 0.0 0.00 0.00 0.00 91 1012.2
20260505004101 10 160 0.0 0.0 0.00 0.00 0.00 91 1012.3
20260505004002 10 160 0.0 0.0 0.00 0.00 0.00 91 1012.2
20260505003901 10 160 0.0 0.0 0.00 0.00 0.00 91 1012.3
20260505003802 10 160 0.0 0.0 0.00 0.00 0.00 91 1012.3
20260505003701 10 160 0.0 0.0 0.00 0.00 0.00 91 1012.3
20260505003602 10 185 0.0 0.0 0.00 0.00 0.00 91 1012.3
20260505003502 10 185 0.0 0.0 0.00 0.00 0.00 91 1012.3
20260505003401 10 185 0.0 0.0 0.00 0.00 0.00 91 1012.3
20260505003302 10 80 0.0 0.0 0.00 0.00 0.00 91 1012.3
20260505003201 10 80 0.0 0.0 0.00 0.00 0.00 91 1012.3
20260505003102 10 80 0.0 0.0 0.00 0.00 0.00 91 1012.3
20260505003002 10 80 0.0 0.0 0.00 0.00 0.00 91 1012.3
20260505002902 10 80 0.0 0.0 0.00 0.00 0.00 91 1012.3
20260505002802 10 80 0.0 0.0 0.00 0.00 0.00 91 1012.3
20260505002701 10 80 0.0 0.0 0.00 0.00 0.00 91 1012.4
20260505002602 10 77 0.0 0.0 0.00 0.00 0.00 91 1012.3
20260505002501 10 77 0.0 0.0 0.00 0.00 0.00 91 1012.4
20260505002402 10 77 0.0 0.0 0.00 0.00 0.00 91 1012.4
20260505002303 10 220 0.0 0.0 0.00 0.00 0.00 91 1012.4
20260505002202 10 220 0.0 0.0 0.00 0.00 0.00 91 1012.4
20260505002101 10 220 0.0 0.0 0.00 0.00 0.00 91 1012.4
20260505002001 10 220 0.0 0.0 0.00 0.00 0.00 91 1012.3
20260505001902 10 220 0.0 0.0 0.00 0.00 0.00 91 1012.3
20260505001801 10 212 6.4 0.0 0.00 0.00 0.00 91 1012.2
20260505001702 10 212 6.4 0.0 0.00 0.00 0.00 91 1012.2
20260505001601 10 190 0.0 0.0 0.00 0.00 0.00 91 1012.3
20260505001502 10 190 0.0 0.0 0.00 0.00 0.00 91 1012.3
20260505001402 10 190 0.0 0.0 0.00 0.00 0.00 91 1012.4
20260505001301 10 175 0.0 0.0 0.00 0.00 0.00 91 1012.4
20260505001202 10 175 0.0 0.0 0.00 0.00 0.00 91 1012.5
20260505001101 10 212 0.0 0.0 0.00 0.00 0.00 91 1012.5
20260505001002 10 212 0.0 0.0 0.00 0.00 0.00 91 1012.6
20260505000901 10 212 0.0 0.0 0.00 0.00 0.00 91 1012.6
20260505000802 10 215 0.0 0.0 0.00 0.00 0.00 91 1012.5
20260505000703 10 215 0.0 0.0 0.00 0.00 0.00 91 1012.6
20260505000602 10 215 0.0 0.0 0.00 0.00 0.00 91 1012.6
20260505000502 10 207 0.0 0.0 0.00 0.00 0.00 90 1012.6
20260505000401 10 207 0.0 0.0 0.00 0.00 0.00 90 1012.7
20260505000302 10 215 0.0 0.0 0.00 0.00 0.00 90 1012.6
20260505000204 10 215 0.0 0.0 0.00 0.00 0.00 90 1012.6
20260505000001 10 195 0.0 0.0 0.00 0.00 0.00 90 1012.7
20260504235902 10 195 0.0 0.0 0.00 0.00 0.00 90 1012.7
20260504235802 10 170 0.0 0.0 0.00 0.00 0.00 90 1012.7
20260504235701 10 170 0.0 0.0 0.00 0.00 0.00 90 1012.8
20260504235602 10 170 0.0 0.0 0.00 0.00 0.00 90 1012.8
20260504235501 10 187 0.0 0.0 0.00 0.00 0.00 90 1012.8
20260504235402 10 187 0.0 0.0 0.00 0.00 0.00 90 1012.8
20260504235301 10 187 0.0 0.0 0.00 0.00 0.00 90 1012.9
20260504235202 10 187 0.0 0.0 0.00 0.00 0.00 90 1012.8
20260504235102 10 187 0.0 0.0 0.00 0.00 0.00 90 1012.8
20260504235002 10 187 0.0 0.0 0.00 0.00 0.00 90 1012.8
20260504234902 10 187 0.0 0.0 0.00 0.00 0.00 90 1012.9
20260504234801 10 232 0.0 0.0 0.00 0.00 0.00 90 1012.9
20260504234702 10 232 0.0 0.0 0.00 0.00 0.00 90 1012.9
20260504234601 10 232 0.0 0.0 0.00 0.00 0.00 90 1012.9
20260504234502 10 257 0.0 0.0 0.00 0.00 0.00 90 1012.9
20260504234401 10 257 0.0 0.0 0.00 0.00 0.00 90 1012.9
20260504234302 10 5 0.0 0.0 0.00 0.00 0.00 90 1012.9
20260504234202 10 5 0.0 0.0 0.00 0.00 0.00 90 1012.9
20260504234102 10 5 0.0 0.0 0.00 0.00 0.00 90 1012.9
20260504234002 10 105 0.0 0.0 0.00 0.00 0.00 90 1013.1
20260504233901 10 105 0.0 0.0 0.00 0.00 0.00 90 1012.9
20260504233802 10 115 0.0 0.0 0.00 0.00 0.00 90 1013.1
20260504233701 10 115 0.0 0.0 0.00 0.00 0.00 90 1013.1
20260504233602 10 115 0.0 0.0 0.00 0.00 0.00 90 1013.1
20260504233501 11 230 0.0 0.0 0.00 0.00 0.00 90 1013.1
20260504233402 11 230 0.0 0.0 0.00 0.00 0.00 90 1013.1
20260504233302 11 200 0.0 0.0 0.00 0.00 0.00 90 1013.2
20260504233202 11 200 0.0 0.0 0.00 0.00 0.00 90 1013.1
20260504233102 11 200 0.0 0.0 0.00 0.00 0.00 90 1013.1
20260504233001 11 177 0.0 0.0 0.00 0.00 0.00 90 1013.1
20260504232902 11 177 0.0 0.0 0.00 0.00 0.00 90 1013.1
20260504232801 11 215 0.0 0.0 0.00 0.00 0.00 90 1013.1
20260504232702 11 215 0.0 0.0 0.00 0.00 0.00 90 1013.1
20260504232602 11 215 0.0 0.0 0.00 0.00 0.00 90 1013.2
20260504232502 11 325 0.0 0.0 0.00 0.00 0.00 89 1013.2
20260504232402 11 325 0.0 0.0 0.00 0.00 0.00 89 1013.2
20260504232303 11 325 0.0 0.0 0.00 0.00 0.00 89 1013.2
20260504232202 11 65 0.0 0.0 0.00 0.00 0.00 89 1013.2
20260504232101 11 65 0.0 0.0 0.00 0.00 0.00 89 1013.3
20260504232002 11 85 0.0 0.0 0.00 0.00 0.00 89 1013.3
20260504231901 11 85 0.0 0.0 0.00 0.00 0.00 89 1013.3
20260504231802 11 85 0.0 0.0 0.00 0.00 0.00 89 1013.3
20260504231702 11 85 0.0 0.0 0.00 0.00 0.00 89 1013.4
20260504231601 11 85 0.0 0.0 0.00 0.00 0.00 89 1013.3
20260504231502 11 85 0.0 0.0 0.00 0.00 0.00 89 1013.4
20260504231401 11 82 0.0 0.0 0.00 0.00 0.00 89 1013.4
20260504231302 11 82 0.0 0.0 0.00 0.00 0.00 89 1013.3
20260504231201 11 75 0.0 0.0 0.00 0.00 0.00 89 1013.4
20260504231102 11 75 0.0 0.0 0.00 0.00 0.00 89 1013.3
20260504231001 11 75 0.0 0.0 0.00 0.00 0.00 89 1013.3
20260504230902 11 52 0.0 0.0 0.00 0.00 0.00 89 1013.4
20260504230803 11 52 0.0 0.0 0.00 0.00 0.00 89 1013.4
20260504230701 11 357 0.0 0.0 0.00 0.00 0.00 89 1013.4
20260504230602 11 357 0.0 0.0 0.00 0.00 0.00 89 1013.4
20260504230502 11 357 0.0 0.0 0.00 0.00 0.00 89 1013.3
20260504230402 11 260 0.0 0.0 0.00 0.00 0.00 89 1013.3
20260504230301 11 260 0.0 0.0 0.00 0.00 0.00 89 1013.3
20260504230202 11 215 0.0 0.0 0.00 0.00 0.00 89 1013.3
20260504230002 11 215 0.0 0.0 0.00 0.00 0.00 89 1013.3
20260504225902 11 215 0.0 0.0 0.00 0.00 0.00 89 1013.3
20260504225801 11 215 0.0 0.0 0.00 0.00 0.00 89 1013.3
20260504225702 11 217 0.0 0.0 0.00 0.00 0.00 89 1013.3
20260504225601 11 217 0.0 0.0 0.00 0.00 0.00 89 1013.3
20260504225502 11 217 0.0 0.0 0.00 0.00 0.00 89 1013.3
20260504225402 11 217 0.0 0.0 0.00 0.00 0.00 89 1013.3
20260504225304 11 217 0.0 0.0 0.00 0.00 0.00 89 1013.3
20260504225202 11 217 0.0 0.0 0.00 0.00 0.00 89 1013.4
20260504225102 11 217 0.0 0.0 0.00 0.00 0.00 89 1013.3
20260504225002 11 217 0.0 0.0 0.00 0.00 0.00 89 1013.3
20260504224901 11 222 0.0 0.0 0.00 0.00 0.00 89 1013.3
20260504224802 11 222 0.0 0.0 0.00 0.00 0.00 89 1013.3
20260504224701 11 192 0.0 0.0 0.00 0.00 0.00 89 1013.3
20260504224602 11 192 0.0 0.0 0.00 0.00 0.00 89 1013.3
20260504224501 11 155 0.0 0.0 0.00 0.00 0.00 89 1013.3
20260504224402 11 155 0.0 0.0 0.00 0.00 0.00 89 1013.4
20260504224301 11 155 0.0 0.0 0.00 0.00 0.00 89 1013.4
20260504224202 11 162 0.0 0.0 0.00 0.00 0.00 89 1013.4
20260504224102 11 162 0.0 0.0 0.00 0.00 0.00 89 1013.4
20260504224001 11 162 0.0 0.0 0.00 0.00 0.00 89 1013.4
20260504223902 11 180 0.0 0.0 0.00 0.00 0.00 89 1013.4
20260504223801 11 180 0.0 0.0 0.00 0.00 0.00 89 1013.4
20260504223702 11 215 0.0 0.0 0.00 0.00 0.00 89 1013.4
20260504223602 11 215 0.0 0.0 0.00 0.00 0.00 89 1013.4
20260504223502 11 207 0.0 0.0 0.00 0.00 0.00 89 1013.4
20260504223402 11 207 0.0 0.0 0.00 0.00 0.00 89 1013.4
20260504223301 11 207 0.0 0.0 0.00 0.00 0.00 89 1013.4
20260504223202 11 207 0.0 0.0 0.00 0.00 0.00 89 1013.4
20260504223101 11 207 0.0 0.0 0.00 0.00 0.00 89 1013.4
20260504223002 11 197 0.0 0.0 0.00 0.00 0.00 89 1013.4
20260504222901 11 197 0.0 0.0 0.00 0.00 0.00 89 1013.4
20260504222802 11 197 0.0 0.0 0.00 0.00 0.00 89 1013.4
20260504222702 11 190 0.0 0.0 0.00 0.00 0.00 89 1013.4
20260504222602 11 190 0.0 0.0 0.00 0.00 0.00 89 1013.4
20260504222502 11 190 0.0 0.0 0.00 0.00 0.00 89 1013.4
20260504222401 11 190 0.0 0.0 0.00 0.00 0.00 89 1013.4
20260504222302 11 190 0.0 0.0 0.00 0.00 0.00 89 1013.4
20260504222201 11 180 0.0 0.0 0.00 0.00 0.00 89 1013.4
20260504222102 11 180 0.0 0.0 0.00 0.00 0.00 89 1013.4
20260504222001 11 180 0.0 0.0 0.00 0.00 0.00 89 1013.4
20260504221902 11 210 6.4 0.0 0.00 0.00 0.00 89 1013.4
20260504221801 11 210 6.4 0.0 0.00 0.00 0.00 89 1013.4
20260504221701 11 210 6.4 0.0 0.00 0.00 0.00 89 1013.4
20260504221602 11 215 4.8 0.0 0.00 0.00 0.00 89 1013.4
20260504221501 11 215 4.8 0.0 0.00 0.00 0.00 89 1013.3
20260504221402 11 200 3.2 0.0 0.00 0.00 0.00 89 1013.4
20260504221301 11 200 3.2 0.0 0.00 0.00 0.00 89 1013.4
20260504221202 11 205 0.0 0.0 0.00 0.00 0.00 89 1013.4
20260504221102 11 205 0.0 0.0 0.00 0.00 0.00 89 1013.4
20260504221002 11 205 0.0 0.0 0.00 0.00 0.00 89 1013.4
20260504220902 11 187 0.0 0.0 0.00 0.00 0.00 89 1013.5
20260504220801 11 187 0.0 0.0 0.00 0.00 0.00 89 1013.5
20260504220702 11 187 0.0 0.0 0.00 0.00 0.00 89 1013.5
20260504220601 11 187 0.0 0.0 0.00 0.00 0.00 89 1013.4
20260504220502 11 187 0.0 0.0 0.00 0.00 0.00 89 1013.5
20260504220402 11 222 4.8 0.0 0.00 0.00 0.00 90 1013.5
20260504220302 11 222 4.8 0.0 0.00 0.00 0.00 90 1013.5
20260504220202 11 222 4.8 0.0 0.00 0.00 0.00 90 1013.4
20260504220002 11 222 4.8 0.0 0.00 0.00 0.00 90 1013.4
20260504215901 11 222 4.8 0.0 0.00 0.00 0.00 90 1013.4
20260504215802 11 222 4.8 0.0 0.00 0.00 0.00 90 1013.4
20260504215701 11 222 4.8 0.0 0.00 0.00 0.00 90 1013.4
20260504215602 11 215 6.4 0.0 0.00 0.00 0.00 90 1013.4
20260504215501 11 215 6.4 0.0 0.00 0.00 0.00 90 1013.4
20260504215402 11 215 6.4 0.0 0.00 0.00 0.00 90 1013.5
20260504215304 11 215 3.2 0.0 0.00 0.00 0.00 90 1013.5
20260504215201 11 215 3.2 0.0 0.00 0.00 0.00 90 1013.5
20260504215102 11 220 6.4 0.0 0.00 0.00 0.00 90 1013.5
20260504215001 11 220 6.4 0.0 0.00 0.00 0.00 90 1013.6
20260504214902 11 225 0.0 0.0 0.00 0.00 0.00 90 1013.6
20260504214802 11 225 0.0 0.0 0.00 0.00 0.00 90 1013.6
20260504214702 11 225 0.0 0.0 0.00 0.00 0.00 90 1013.6
20260504214601 11 205 4.8 0.0 0.00 0.00 0.00 90 1013.7
20260504214502 11 205 4.8 0.0 0.00 0.00 0.00 90 1013.6
20260504214402 11 210 6.4 0.0 0.00 0.00 0.00 90 1013.7
20260504214301 11 210 6.4 0.0 0.00 0.00 0.00 90 1013.7
20260504214202 11 210 6.4 0.0 0.00 0.00 0.00 90 1013.7
20260504214101 11 210 6.4 0.0 0.00 0.00 0.00 90 1013.7
20260504214002 11 205 0.0 0.0 0.00 0.00 0.00 90 1013.7
20260504213901 11 205 0.0 0.0 0.00 0.00 0.00 90 1013.8
20260504213802 11 215 0.0 0.0 0.00 0.00 0.00 90 1013.8
20260504213702 11 215 0.0 0.0 0.00 0.00 0.00 90 1013.8
20260504213601 11 212 0.0 0.0 0.00 0.00 0.00 90 1013.8
20260504213502 11 212 0.0 0.0 0.00 0.00 0.00 90 1013.8
20260504213401 11 212 0.0 0.0 0.00 0.00 0.00 90 1013.8
20260504213302 11 220 0.0 0.0 0.00 0.00 0.00 90 1013.8
20260504213201 11 220 0.0 0.0 0.00 0.00 0.00 90 1013.8
20260504213102 11 220 0.0 0.0 0.00 0.00 0.00 90 1013.9
20260504213001 11 217 0.0 0.0 0.00 0.00 0.00 90 1013.9
20260504212902 11 217 0.0 0.0 0.00 0.00 0.00 90 1013.9
20260504212802 11 207 0.0 0.0 0.00 0.00 0.00 90 1013.9
20260504212702 11 207 0.0 0.0 0.00 0.00 0.00 90 1013.9
20260504212602 11 220 0.0 0.0 0.00 0.00 0.00 90 1013.9
20260504212501 11 220 0.0 0.0 0.00 0.00 0.00 90 1014.0
20260504212402 11 220 0.0 0.0 0.00 0.00 0.00 90 1013.9
20260504212303 11 220 0.0 0.0 0.00 0.00 0.00 90 1013.9
20260504212202 11 220 0.0 0.0 0.00 0.00 0.00 90 1014.0
20260504212102 11 220 0.0 0.0 0.00 0.00 0.00 90 1014.0
20260504212001 11 215 0.0 0.0 0.00 0.00 0.00 90 1014.0
20260504211902 11 215 0.0 0.0 0.00 0.00 0.00 90 1014.0
20260504211801 11 215 0.0 0.0 0.00 0.00 0.00 90 1014.0
20260504211702 11 215 0.0 0.0 0.00 0.00 0.00 90 1014.0
20260504211601 11 210 4.8 0.0 0.00 0.00 0.00 90 1014.0
20260504211502 11 210 4.8 0.0 0.00 0.00 0.00 90 1014.0
20260504211401 11 210 4.8 0.0 0.00 0.00 0.00 90 1014.1
20260504211302 11 210 4.8 0.0 0.00 0.00 0.00 90 1014.1
20260504211202 11 210 4.8 0.0 0.00 0.00 0.00 90 1014.1
20260504211101 11 212 0.0 0.0 0.00 0.00 0.00 90 1014.1
20260504211002 11 212 0.0 0.0 0.00 0.00 0.00 90 1014.1
20260504210901 11 212 0.0 0.0 0.00 0.00 0.00 90 1014.1
20260504210802 11 210 0.0 0.0 0.00 0.00 0.00 90 1014.1
20260504210701 11 210 0.0 0.0 0.00 0.00 0.00 90 1014.2
20260504210602 11 210 0.0 0.0 0.00 0.00 0.00 90 1014.2
20260504210502 11 210 0.0 0.0 0.00 0.00 0.00 90 1014.2
20260504210402 11 210 0.0 0.0 0.00 0.00 0.00 90 1014.2
20260504210302 11 200 0.0 0.0 0.00 0.00 0.00 90 1014.2
20260504210201 11 200 0.0 0.0 0.00 0.00 0.00 90 1014.2
20260504210001 11 227 0.0 0.0 0.00 0.00 0.00 90 1014.2
20260504205902 11 227 0.0 0.0 0.00 0.00 0.00 90 1014.2
20260504205802 11 225 0.0 0.0 0.00 0.00 0.00 90 1014.2
20260504205702 11 225 0.0 0.0 0.00 0.00 0.00 90 1014.2
20260504205602 11 225 0.0 0.0 0.00 0.00 0.00 90 1014.3
20260504205501 11 225 0.0 0.0 0.00 0.00 0.00 90 1014.3
20260504205402 11 225 0.0 0.0 0.00 0.00 0.00 90 1014.3
20260504205301 11 210 0.0 0.0 0.00 0.00 0.00 89 1014.3
20260504205202 11 210 0.0 0.0 0.00 0.00 0.00 89 1014.3
20260504205101 11 200 0.0 0.0 0.00 0.00 0.00 89 1014.3
20260504205002 11 200 0.0 0.0 0.00 0.00 0.00 89 1014.3
20260504204902 11 200 0.0 0.0 0.00 0.00 0.00 89 1014.3
20260504204801 11 192 0.0 0.0 0.00 0.00 0.00 89 1014.3
20260504204702 11 192 0.0 0.0 0.00 0.00 0.00 89 1014.4
20260504204601 11 192 0.0 0.0 0.00 0.00 0.00 89 1014.4
20260504204502 11 222 0.0 0.0 0.00 0.00 0.00 89 1014.4
20260504204401 11 222 0.0 0.0 0.00 0.00 0.00 89 1014.4
20260504204302 11 222 0.0 0.0 0.00 0.00 0.00 89 1014.4
20260504204202 11 222 0.0 0.0 0.00 0.00 0.00 89 1014.4
20260504204102 11 222 0.0 0.0 0.00 0.00 0.00 89 1014.4
20260504204002 11 222 0.0 0.0 0.00 0.00 0.00 89 1014.4
20260504203901 11 222 0.0 0.0 0.00 0.00 0.00 89 1014.4
20260504203802 11 225 0.0 0.0 0.00 0.00 0.00 89 1014.4
20260504203701 11 225 0.0 0.0 0.00 0.00 0.00 89 1014.4
20260504203602 11 225 0.0 0.0 0.00 0.00 0.00 89 1014.4
20260504203502 11 240 0.0 0.0 0.00 0.00 0.00 89 1014.3
20260504203402 11 240 0.0 0.0 0.00 0.00 0.00 89 1014.4
20260504203302 11 240 0.0 0.0 0.00 0.00 0.00 89 1014.4
20260504203201 11 240 0.0 0.0 0.00 0.00 0.00 89 1014.5
20260504203102 11 240 0.0 0.0 0.00 0.00 0.00 89 1014.5
20260504203001 11 240 0.0 0.0 0.00 0.00 0.00 89 1014.5
20260504202902 11 240 0.0 0.0 0.00 0.00 0.00 89 1014.5
20260504202801 11 270 0.0 0.0 0.00 0.00 0.00 89 1014.5
20260504202702 11 270 0.0 0.0 0.00 0.00 0.00 89 1014.6
20260504202602 11 270 0.0 0.0 0.00 0.00 0.00 89 1014.6
20260504202502 11 262 0.0 0.0 0.00 0.00 0.00 89 1014.5
20260504202402 11 262 0.0 0.0 0.00 0.00 0.00 89 1014.5
20260504202301 11 262 0.0 0.0 0.00 0.00 0.00 89 1014.5
20260504202202 11 222 0.0 0.0 0.00 0.00 0.00 89 1014.5
20260504202101 11 222 0.0 0.0 0.00 0.00 0.00 89 1014.5
20260504202002 11 222 0.0 0.0 0.00 0.00 0.00 89 1014.5
20260504201902 11 222 0.0 0.0 0.00 0.00 0.00 89 1014.5
20260504201802 11 222 0.0 0.0 0.00 0.00 0.00 89 1014.5
20260504201702 11 247 0.0 0.0 0.00 0.00 0.00 89 1014.4
20260504201602 11 247 0.0 0.0 0.00 0.00 0.00 89 1014.4
20260504201502 11 247 0.0 0.0 0.00 0.00 0.00 89 1014.4
20260504201401 11 245 0.0 0.0 0.00 0.00 0.00 89 1014.4
20260504201302 11 245 0.0 0.0 0.00 0.00 0.00 89 1014.5
20260504201201 11 245 0.0 0.0 0.00 0.00 0.00 89 1014.5
20260504201102 11 245 0.0 0.0 0.00 0.00 0.00 89 1014.5
20260504201001 11 245 0.0 0.0 0.00 0.00 0.00 89 1014.5
20260504200902 11 245 0.0 0.0 0.00 0.00 0.00 89 1014.5
20260504200702 11 245 0.0 0.0 0.00 0.00 0.00 89 1014.4
20260504200602 11 245 0.0 0.0 0.00 0.00 0.00 89 1014.5
20260504200502 11 245 0.0 0.0 0.00 0.00 0.00 89 1014.5
20260504200402 11 245 0.0 0.0 0.00 0.00 0.00 89 1014.5
20260504200301 11 245 0.0 0.0 0.00 0.00 0.00 89 1014.4
20260504200202 11 245 0.0 0.0 0.00 0.00 0.00 89 1014.5
20260504200002 12 245 0.0 0.0 0.00 0.00 0.00 89 1014.4
20260504195901 12 245 0.0 0.0 0.00 0.00 0.00 89 1014.4
20260504195802 12 245 0.0 0.0 0.00 0.00 0.00 89 1014.4
20260504195702 12 245 0.0 0.0 0.00 0.00 0.00 89 1014.4
20260504195602 12 245 0.0 0.0 0.00 0.00 0.00 89 1014.3
20260504195502 12 245 0.0 0.0 0.00 0.00 0.00 89 1014.4
20260504195401 12 245 0.0 0.0 0.00 0.00 0.00 89 1014.4
20260504195304 12 245 0.0 0.0 0.00 0.00 0.00 89 1014.4
20260504195201 12 247 0.0 0.0 0.00 0.00 0.00 89 1014.4
20260504195102 12 247 0.0 0.0 0.00 0.00 0.00 89 1014.4
20260504195002 12 247 0.0 0.0 0.00 0.00 0.00 89 1014.3
20260504194901 12 87 0.0 0.0 0.00 0.00 0.00 89 1014.3
20260504194802 12 87 0.0 0.0 0.00 0.00 0.00 89 1014.4
20260504194701 12 5 0.0 0.0 0.00 0.00 0.00 89 1014.3
20260504194602 12 5 0.0 0.0 0.00 0.00 0.00 89 1014.3
20260504194502 12 60 0.0 0.0 0.00 0.00 0.00 89 1014.3
20260504194402 12 60 0.0 0.0 0.00 0.00 0.00 89 1014.3
20260504194302 12 60 0.0 0.0 0.00 0.00 0.00 89 1014.3
20260504194202 12 145 0.0 0.0 0.00 0.00 0.00 89 1014.2
20260504194101 12 145 0.0 0.0 0.00 0.00 0.00 89 1014.3
20260504194002 12 145 0.0 0.0 0.00 0.00 0.00 89 1014.3
20260504193901 12 195 0.0 0.0 0.00 0.00 0.00 89 1014.3
20260504193802 12 195 0.0 0.0 0.00 0.00 0.00 89 1014.2
20260504193702 12 202 0.0 0.0 0.00 0.00 0.00 89 1014.3
20260504193602 12 202 0.0 0.0 0.00 0.00 0.00 89 1014.2
20260504193502 12 217 0.0 0.0 0.00 0.00 0.00 89 1014.2
20260504193401 12 217 0.0 0.0 0.00 0.00 0.00 89 1014.2
20260504193302 12 217 0.0 0.0 0.00 0.00 0.00 89 1014.1
20260504193201 12 205 6.4 0.0 0.00 0.00 0.00 89 1014.1
20260504193102 12 205 6.4 0.0 0.00 0.00 0.00 89 1014.1
20260504193001 12 205 6.4 0.0 0.00 0.00 0.00 89 1014.1
20260504192937 12 205 8.0 0.0 0.00 0.00 0.00 89 1014.1
20260504192801 12 205 8.0 0.0 0.00 0.00 0.00 89 1014.0
20260504192702 12 205 8.0 0.0 0.00 0.00 0.00 89 1014.0
20260504192637 12 205 8.0 0.0 0.00 0.00 0.00 89 1014.0
20260504192501 12 205 8.0 0.0 0.00 0.00 0.00 89 1014.0
20260504192402 12 205 8.0 0.0 0.00 0.00 0.00 89 1014.0
20260504192301 12 205 8.0 0.0 0.00 0.00 0.00 89 1014.1
20260504192202 12 172 4.8 0.0 0.00 0.00 0.00 89 1014.1
20260504192101 12 172 4.8 0.0 0.00 0.00 0.00 89 1014.1
20260504192002 12 172 4.8 0.0 0.00 0.00 0.00 89 1014.1
20260504191902 12 147 0.0 0.0 0.00 0.00 0.00 89 1014.2
20260504191801 12 147 0.0 0.0 0.00 0.00 0.00 89 1014.2
20260504191702 12 147 0.0 0.0 0.00 0.00 0.00 89 1014.2
20260504191602 12 125 0.0 0.0 0.00 0.00 0.00 88 1014.2
20260504191502 12 125 0.0 0.0 0.00 0.00 0.00 88 1014.3
20260504191401 12 95 0.0 0.0 0.00 0.00 0.00 88 1014.3
20260504191302 12 95 0.0 0.0 0.00 0.00 0.00 88 1013.2
20260504191201 12 60 8.0 0.0 0.00 0.00 0.00 88 1013.2
20260504191102 12 60 8.0 0.0 0.00 0.00 0.00 88 1013.2
20260504191001 12 60 8.0 0.0 0.00 0.00 0.00 88 1013.2
20260504190902 12 60 8.0 0.0 0.00 0.00 0.00 88 1013.2
20260504190802 12 60 8.0 0.0 0.00 0.00 0.00 88 1013.2
20260504190702 12 55 4.8 0.0 0.00 0.00 0.00 87 1013.2
20260504190601 12 55 4.8 0.0 0.00 0.00 0.00 87 1013.2
20260504190501 12 55 4.8 0.0 0.00 0.00 0.00 87 1013.2
20260504190402 12 55 4.8 0.0 0.00 0.00 0.00 87 1013.2
20260504190301 12 55 4.8 0.0 0.00 0.00 0.00 87 1013.2
20260504190202 12 55 4.8 0.0 0.00 0.00 0.00 87 1013.2
20260504190002 12 60 6.4 0.0 0.00 0.00 0.00 87 1013.2
20260504185901 12 62 9.7 0.0 0.00 0.00 0.00 87 1013.2
20260504185801 12 62 9.7 0.0 0.00 0.00 0.00 87 1013.2
20260504185702 12 62 9.7 0.0 0.00 0.00 0.00 87 1013.2
20260504185601 12 57 9.7 0.0 0.00 0.00 0.00 86 1013.2
20260504185502 12 57 9.7 0.0 0.00 0.00 0.00 86 1013.2
20260504185401 12 57 9.7 0.0 0.00 0.00 0.00 86 1013.2
20260504185304 12 62 12.9 0.0 0.00 0.00 0.00 86 1013.2
20260504185202 12 62 12.9 0.0 0.00 0.00 0.00 86 1013.2
20260504185102 12 75 11.3 0.0 0.00 0.00 0.00 86 1013.2
20260504185002 12 75 11.3 0.0 0.00 0.00 0.00 86 1013.2
20260504184902 12 80 4.8 0.0 0.00 0.00 0.00 86 1013.2
20260504184802 12 75 9.7 0.0 0.00 0.00 0.00 85 1013.2
20260504184701 12 75 9.7 0.0 0.00 0.00 0.00 85 1013.2
20260504184602 13 62 12.9 0.0 0.00 0.00 0.00 84 1013.2
20260504184501 13 62 12.9 0.0 0.00 0.00 0.00 84 1013.2
20260504184402 13 62 12.9 0.0 0.00 0.00 0.00 84 1013.2
20260504184301 13 62 12.9 0.0 0.00 0.00 0.00 84 1013.2
20260504184202 13 62 12.9 0.0 0.00 0.00 0.00 84 1013.2
20260504184101 13 62 12.9 0.0 0.00 0.00 0.00 84 1013.2
20260504184002 13 62 12.9 0.0 0.00 0.00 0.00 84 1013.2
20260504183901 13 62 12.9 0.0 0.00 0.00 0.00 84 1013.2
20260504183802 13 75 8.0 0.0 0.00 0.00 0.00 83 1013.2
20260504183703 13 75 8.0 0.0 0.00 0.00 0.00 83 1013.2
20260504183602 13 75 8.0 0.0 0.00 0.00 0.00 83 1013.2
20260504183502 13 75 8.0 0.0 0.00 0.00 0.00 83 1013.2
20260504183401 13 75 8.0 0.0 0.00 0.00 0.00 83 1013.2
20260504183302 13 75 8.0 0.0 0.00 0.00 0.00 83 1013.2
20260504183202 13 75 8.0 0.0 0.00 0.00 0.00 83 1013.2
20260504183102 13 75 8.0 0.0 0.00 0.00 0.00 83 1013.2
20260504183001 13 75 9.7 0.0 0.00 0.00 0.00 82 1013.2
20260504182902 13 75 9.7 0.0 0.00 0.00 0.00 82 1013.2
20260504182801 13 75 9.7 0.0 0.00 0.00 0.00 82 1013.2
20260504182702 13 75 9.7 0.0 0.00 0.00 0.00 82 1013.2
20260504182601 13 77 6.4 0.0 0.00 0.00 0.00 82 1013.2
20260504182502 13 77 6.4 0.0 0.00 0.00 0.00 82 1013.2
20260504182402 13 77 6.4 0.0 0.00 0.00 0.00 82 1013.2
20260504182301 13 80 0.0 0.0 0.00 0.00 0.00 82 1013.2
20260504182202 13 80 0.0 0.0 0.00 0.00 0.00 82 1013.2
20260504182101 13 80 0.0 0.0 0.00 0.00 0.00 82 1013.2
20260504182002 13 80 0.0 0.0 0.00 0.00 0.00 82 1013.2
20260504181901 13 80 0.0 0.0 0.00 0.00 0.00 82 1013.2
20260504181802 13 82 6.4 0.0 0.00 0.00 0.00 82 1013.2
20260504181702 13 82 6.4 0.0 0.00 0.00 0.00 82 1013.2
20260504181601 13 82 0.0 0.0 0.00 0.00 0.00 81 1013.2
20260504181502 13 82 0.0 0.0 0.00 0.00 0.00 81 1013.2
20260504181401 13 82 0.0 0.0 0.00 0.00 0.00 81 1013.2
20260504181302 13 90 9.7 0.0 0.00 0.00 0.00 81 1013.2
20260504181201 13 90 9.7 0.0 0.00 0.00 0.00 81 1013.2
20260504181102 13 92 9.7 0.0 0.00 0.00 0.00 81 1013.2
20260504181001 13 92 9.7 0.0 0.00 0.00 0.00 81 1013.2
20260504180902 13 92 9.7 0.0 0.00 0.00 0.00 81 1013.2
20260504180802 13 95 3.2 0.0 0.00 0.00 0.00 81 1013.2
20260504180702 13 95 3.2 0.0 0.00 0.00 0.00 81 1013.2
20260504180602 13 95 3.2 0.0 0.00 0.00 0.00 81 1013.2
20260504180502 13 145 0.0 0.0 0.00 0.00 0.00 81 1013.2
20260504180402 13 145 0.0 0.0 0.00 0.00 0.00 81 1013.2
20260504180301 13 145 0.0 0.0 0.00 0.00 0.00 81 1013.2
20260504180202 13 145 0.0 0.0 0.00 0.00 0.00 81 1013.2
20260504180002 13 165 0.0 0.0 0.00 0.00 0.00 81 1013.2
20260504175902 13 165 0.0 0.0 0.00 0.00 0.00 81 1013.2
20260504175801 13 165 0.0 0.0 0.00 0.00 0.00 81 1013.2
20260504175702 13 177 0.0 0.0 0.00 0.00 0.00 81 1013.2
20260504175601 13 177 0.0 0.0 0.00 0.00 0.00 81 1013.2
20260504175502 13 175 0.0 0.0 0.00 0.00 0.00 81 1013.2
20260504175401 13 175 0.0 0.0 0.00 0.00 0.00 81 1013.2
20260504175304 13 195 0.0 0.0 0.00 0.00 0.00 81 1013.2
20260504175202 13 195 0.0 0.0 0.00 0.00 0.00 81 1013.2
20260504175101 13 195 0.0 0.0 0.00 0.00 0.00 81 1013.2
20260504175002 13 195 0.0 0.0 0.00 0.00 0.00 81 1013.2
20260504174901 13 195 0.0 0.0 0.00 0.00 0.00 81 1013.2
20260504174802 13 192 0.0 0.0 0.00 0.00 0.00 80 1013.2
20260504174701 13 192 0.0 0.0 0.00 0.00 0.00 80 1013.2
20260504174602 13 192 0.0 0.0 0.00 0.00 0.00 80 1013.2
20260504174502 13 210 0.0 0.0 0.00 0.00 0.00 80 1013.2
20260504174402 13 210 0.0 0.0 0.00 0.00 0.00 80 1013.2
20260504174302 14 140 0.0 0.0 0.00 0.00 0.00 80 1013.2
20260504174201 14 140 0.0 0.0 0.00 0.00 0.00 80 1013.2
20260504174102 14 140 0.0 0.0 0.00 0.00 0.00 80 1013.2
20260504174001 14 140 0.0 0.0 0.00 0.00 0.00 80 1013.2
20260504173902 14 140 0.0 0.0 0.00 0.00 0.00 80 1013.2
20260504173801 14 140 0.0 0.0 0.00 0.00 0.00 80 1013.2
20260504173702 14 132 0.0 0.0 0.00 0.00 0.00 79 1013.2
20260504173602 14 132 0.0 0.0 0.00 0.00 0.00 79 1013.2
20260504173502 14 210 0.0 0.0 0.00 0.00 0.00 79 1013.2
20260504173402 14 210 0.0 0.0 0.00 0.00 0.00 79 1013.2
20260504173303 14 210 0.0 0.0 0.00 0.00 0.00 79 1013.2
20260504173202 14 250 0.0 0.0 0.00 0.00 0.00 78 1013.2
20260504173102 14 250 0.0 0.0 0.00 0.00 0.00 78 1013.2
20260504173001 14 250 0.0 0.0 0.00 0.00 0.00 78 1013.2
20260504172902 14 250 0.0 0.0 0.00 0.00 0.00 78 1013.2
20260504172801 14 285 0.0 0.0 0.00 0.00 0.00 79 1013.2
20260504172702 14 285 0.0 0.0 0.00 0.00 0.00 79 1013.2
20260504172601 14 285 0.0 0.0 0.00 0.00 0.00 79 1013.2
20260504172502 14 327 0.0 0.0 0.00 0.00 0.00 78 1013.2
20260504172402 14 327 0.0 0.0 0.00 0.00 0.00 78 1013.2
20260504172301 14 327 0.0 0.0 0.00 0.00 0.00 78 1013.2
20260504172202 14 327 0.0 0.0 0.00 0.00 0.00 78 1013.2
20260504172101 14 327 0.0 0.0 0.00 0.00 0.00 78 1013.2
20260504172002 14 332 0.0 0.0 0.00 0.00 0.00 78 1013.2
20260504171902 14 340 0.0 0.0 0.00 0.00 0.00 79 1013.2
20260504171802 14 340 0.0 0.0 0.00 0.00 0.00 79 1013.2
20260504171701 14 340 0.0 0.0 0.00 0.00 0.00 79 1013.2
20260504171602 14 340 0.0 0.0 0.00 0.00 0.00 79 1013.2
20260504171502 14 340 0.0 0.0 0.00 0.00 0.00 79 1013.2
20260504171401 14 0 4.8 0.0 0.00 0.00 0.00 79 1013.2
20260504171302 14 0 4.8 0.0 0.00 0.00 0.00 79 1013.2
20260504171201 14 0 4.8 0.0 0.00 0.00 0.00 79 1013.2
20260504171102 14 12 0.0 0.0 0.00 0.00 0.00 79 1013.2
20260504171001 14 12 0.0 0.0 0.00 0.00 0.00 79 1013.2
20260504170902 14 20 9.7 0.0 0.00 0.00 0.00 79 1013.2
20260504170801 14 20 9.7 0.0 0.00 0.00 0.00 79 1013.2
20260504170702 15 25 9.7 0.0 0.00 0.00 0.00 78 1013.2
20260504170601 15 25 9.7 0.0 0.00 0.00 0.00 78 1013.2
20260504170502 15 25 9.7 0.0 0.00 0.00 0.00 78 1013.2
20260504170402 15 30 12.9 0.0 0.00 0.00 0.00 77 1013.2
20260504170301 15 30 12.9 0.0 0.00 0.00 0.00 77 1013.2
20260504170202 15 30 12.9 0.0 0.00 0.00 0.00 77 1013.2
20260504160402 16 80 6.4 0.0 0.00 0.00 0.00 68 1013.1
20260504160301 16 80 6.4 0.0 0.00 0.00 0.00 68 1013.1
20260504160202 16 80 6.4 0.0 0.00 0.00 0.00 68 1013.1
20260504151102 17 70 8.0 0.0 0.00 0.00 0.00 62 1013.2
20260504151002 17 70 8.0 0.0 0.00 0.00 0.00 62 1013.2
20260504150902 17 70 8.0 0.0 0.00 0.00 0.00 62 1013.3
20260504150801 17 70 8.0 0.0 0.00 0.00 0.00 62 1013.2
20260504150702 18 67 6.4 0.0 0.00 0.00 0.00 63 1013.2
20260504150601 18 67 6.4 0.0 0.00 0.00 0.00 63 1013.2
20260504150502 18 62 9.7 0.0 0.00 0.00 0.00 59 1013.2
20260504150401 18 62 9.7 0.0 0.00 0.00 0.00 59 1013.2
20260504150302 18 12 0.0 0.0 0.00 0.00 0.00 58 1013.2
20260504150202 18 12 0.0 0.0 0.00 0.00 0.00 58 1013.2
20260504141302 19 70 9.7 0.0 0.00 0.00 0.00 60 1013.6
20260504141202 19 62 12.9 0.0 0.00 0.00 0.00 60 1013.6
20260504141102 19 62 12.9 0.0 0.00 0.00 0.00 60 1013.6
20260504141002 19 62 12.9 0.0 0.00 0.00 0.00 60 1013.6
20260504140901 19 72 20.9 0.0 0.00 0.00 0.00 60 1013.6
20260504140802 18 10 6.4 0.0 0.00 0.00 0.00 61 1013.6
20260504140701 18 10 6.4 0.0 0.00 0.00 0.00 61 1013.6
20260504140602 18 10 6.4 0.0 0.00 0.00 0.00 61 1013.6
20260504140501 18 10 6.4 0.0 0.00 0.00 0.00 61 1013.7
20260504140402 18 10 6.4 0.0 0.00 0.00 0.00 61 1013.6
20260504140301 18 10 6.4 0.0 0.00 0.00 0.00 61 1013.6
20260504140202 18 62 0.0 0.0 0.00 0.00 0.00 60 1013.6